User: anonymous   Login
Location: Unspecified
(0.0000°N, 0.0000°E)
Time: 16:36:45
(UTC+00:00)
Language:

CAT - Orbit

View from above orbital plane
View from above orbital plane
View from above satellite
View from above satellite

Ground track
Ground track

The orbit data is extracted from the following two-line orbital elements,

1 12546U 81057C   19015.49801890  .00019358 -10403-6  48987-3 0  9994
2 12546  10.1873 131.7478 6106416 343.1302   3.2347  3.96279349298607
Epoch (UTC): 15 January 2019 11:57:08
Eccentricity: 0.6106416
inclination: 10.1873°
perigee height: 189 km
apogee height: 20790 km
right ascension of ascending node: 131.7478°
argument of perigee: 343.1302°
revolutions per day: 3.96279349
mean anomaly at epoch: 3.2347°
orbit number at epoch: 29860

The dashed part of the orbit path shows where the satellite is in the earth's shadow,  

DLR